Location: *
(12.5665°N, 8.3471°E)
Time: 10:05:56
(UTC+00:00)

Sich 1 Rocket - Pass Details

Date: 23 September 2019
Orbit: 617 x 652 km, 82.5° (Epoch: 22 October)

Event Time Altitude Azimuth Distance (km) Brightness Sun altitude
Rises 04:26:50 0° 350° (N) 2,924 6.9 -12.8°
Reaches altitude 10° 04:29:05 10° 347° (NNW) 2,021 6.1 -12.2°
Maximum altitude 04:33:30 61° 267° (W) 730 3.6 -11.1°
Drops below altitude 10° 04:37:58 10° 187° (S) 2,039 6.1 -10.0°
Sets 04:40:14 0° 183° (S) 2,952 7.0 -9.5°
